Regional Weather Roundup
Issued by NWS

Home | Current Version | Previous Version | Text Only | Print | Product List | Glossary Off
Versions: 1 2 3 4 5 6 7 8 9 10 11 12 13 14 15 16 17 18 19 20 21 22 23 24 25 26 27 28 29 30 31 32 33 34 35 36 37 38 39 40 41 42 43 44 45 46 47 48 49 50

000
ASUS43 KDMX 261507
RWRIA

WEATHER ROUNDUP FOR IOWA
NATIONAL WEATHER SERVICE DES MOINES IA
1000 AM CDT THU MAR 26 2015

NOTE: "FAIR" INDICATES FEW OR NO CLOUDS BELOW 12,000 FEET WITH NO
SIGNIFICANT WEATHER AND/OR OBSTRUCTIONS TO VISIBILITY.

* - THESE STATIONS ARE NOT NWS STATIONS...THUS NOT UNDER NWS
QUALITY CONTROL.  THEY ALSO DO NOT REPORT WEATHER SUCH
AS PRECIPITATION OR FOG.

IAZ001>003-012>014-020>022-031>034-043>046-261600-
   NORTHWEST IOWA

CITY           SKY/WX    TMP DP  RH WIND       PRES   REMARKS
CARROLL *      SUNNY     37  27  65 NW15      30.19R WCI  28
CHEROKEE *     SUNNY     36  27  69 NW7       30.18F WCI  30
DENISON *      SUNNY     34  28  80 NW10      30.18F WCI  26
LE MARS *      SUNNY     36  25  64 N6        30.20F WCI  31
ORANGE CITY *  SUNNY     37  25  60 NW5       30.17S WCI  34
SHELDON *      SUNNY     36  28  75 N10       30.16S WCI  28
SIOUX CITY     SUNNY     35  23  61 NW10      30.22S WCI  27
SPENCER        SUNNY     36  27  69 N16       30.16F WCI  26
STORM LAKE *   SUNNY     36  25  64 NW10      30.17F WCI  28
$$

IAZ055>058-069>071-079>083-090>094-261600-
   SOUTHWEST IOWA

CITY           SKY/WX    TMP DP  RH WIND       PRES   REMARKS
ATLANTIC *     SUNNY     36  27  69 NW9       30.21S WCI  29
AUDUBON *      SUNNY     36  27  69 NW10      30.20R WCI  28
CLARINDA *     SUNNY     37  27  65 NW9       30.24S WCI  31
COUNCIL BLFS * SUNNY     36  27  69 NW7       30.23S WCI  30
CRESTON *      SUNNY     36  27  69 NW10      30.19S WCI  28
HARLAN  *      SUNNY     36  32  87 NW15      30.25R WCI  26
LAMONI         SUNNY     39  24  55 NW16      30.18S WCI  30
RED OAK *      SUNNY     36  28  75 NW9       30.23S WCI  29
SHENANDOAH *   SUNNY     37  28  70 NW7       30.25S WCI  32
$$

IAZ047>049-059>061-072>074-084-261600-
   CENTRAL IOWA

CITY           SKY/WX    TMP DP  RH WIND       PRES   REMARKS
AMES           SUNNY     37  24  59 N15       30.16S WCI  28
ANKENY *       SUNNY     37  23  56 NW14G24   30.17R WCI  29
CHARITON *     SUNNY     37  23  56 N15G22    30.16F WCI  28
DES MOINES     MOSUNNY   39  23  52 NW13      30.18R WCI  31
GRINNELL*      SUNNY     36  27  69 NW16G26   30.14R WCI  26
KNOXVILLE *    SUNNY     37  23  56 NW14G20   30.15R WCI  29
MARSHALLTOWN   SUNNY     36  26  67 NW23      30.13R WCI  24
PELLA *        SUNNY     37  28  70 NW18      30.16S WCI  27
PERRY *          N/A     37  28  70 NW10      30.18S WCI  30
$$

IAZ004>006-015-016-023>025-035-036-261600-
   NORTH CENTRAL IOWA

CITY           SKY/WX    TMP DP  RH WIND       PRES   REMARKS
ALGONA *       SUNNY     34  27  75 NW18      30.15S WCI  23
CLARION *      MIX PCPN  34  27  75 N17G24    30.15R WCI  23
ESTHERVILLE    SUNNY     32  25  75 NW16      30.15S WCI  21
FORT DODGE *   SUNNY     36  25  64 N9        30.17R WCI  29
MASON CITY     SUNNY     34  23  64 NW20      30.13R WCI  23
FOREST CITY *  SUNNY     32  23  69 NW20G25   30.13R WCI  20
IOWA FALLS *     N/A     36  27  69 NW22      30.14S WCI  24
$$

IAZ007>011-017>019-026>030-037>042-050>054-066-261600-
   NORTHEAST IOWA

CITY           SKY/WX    TMP DP  RH WIND       PRES   REMARKS
CEDAR RAPIDS   SUNNY     35  23  61 N21G28    30.09R WCI  24
CHARLES CITY * SUNNY     32  25  74 NW21      30.10R WCI  20
CLINTON *      MOSUNNY   36  25  64 NW15      30.08S WCI  26
DECORAH *      SUNNY     30  21  69 NW10G21   30.06R WCI  21
DUBUQUE        MOSUNNY   34  21  59 N20G26    30.04R WCI  23
MONTICELLO *   SUNNY     34  23  64 N18       30.07R WCI  23
OELWEIN *      SUNNY     34  23  64 NW22      30.08F WCI  22
WATERLOO       SUNNY     37  24  59 N17       30.10S WCI  27
$$

IAZ064-065-067-068-078-261600-
   EAST CENTRAL IOWA

CITY           SKY/WX    TMP DP  RH WIND       PRES   REMARKS
DAVENPORT      MOSUNNY   35  23  61 NW15      30.07S WCI  25
IOWA CITY      SUNNY     37  23  56 NW16G22   30.11S WCI  28
MUSCATINE *    SUNNY     37  23  56 NW20      30.11S WCI  27
QUAD CITIES    SUNNY     37  24  59 NW15G23   30.07S WCI  28
$$

IAZ062-063-075>077-085>089-095>099-261600-
   SOUTHEAST IOWA

CITY           SKY/WX    TMP DP  RH WIND       PRES   REMARKS
BURLINGTON     SUNNY     38  24  57 NW13      30.10S WCI  30
FAIRFIELD *    SUNNY     37  25  60 N20G26    30.12S WCI  27
FORT MADISON * SUNNY     37  25  60 NW16G23   30.12F WCI  28
KEOKUK *       SUNNY     37  25  60 NW15      30.12F WCI  28
OSKALOOSA *      N/A     36  27  69 NW16G23   30.14S WCI  26
CENTERVILLE *  SUNNY     37  25  60 NW17      30.17R WCI  28
OTTUMWA        SUNNY     38  25  59 NW18G24   30.14R WCI  28
WASHINGTON *   SUNNY     37  28  70 NW16G23   30.11S WCI  28
$$

ABBREVIATIONS USED IN REMARKS
   TC - TEMPERATURES IN CELSIUS
  WCI - WIND CHILL INDEX
   HX - HEAT INDEX
  VSB - VISIBILITY
$$



USA.gov is the U.S. government's official web portal to all federal, state and local government web resources and services.